Über SPNeX
Group: 3 satellites
Beschreibung wird geladen...
Live-Position
3D-Globus wird geladen...
Nächste Überflüge
Höhenverlauf
Altitude vs Time
uPlot chart will show altitude changes over time
Zweizeiliger Elementsatz
1 67000U 25292H 25345.87535260 .00003225 00000-0 23206-3 0 9996
2 67000 97.6576 58.4335 0014339 283.4517 76.5111 15.04864273 138
Epoch: 11. Dez. 2025 •
Age: 61 hours
Aktueller Status
Höhe 575.2 km
Geschwindigkeit 7.57 km/s
Subsatellitenpunkt 81.79°N,
119.11°E
Startdatum 10. Dez. 2025
Alter 4 days
Typ other
Technische Details
Klassifizierung Payload
Masse 12.00 kg
Trockenmasse 12.00 kg
Gesamtmasse 12.00 kg
Länge 0.30 m
Durchmesser 0.20 m
Spannweite 0.50 m
Form Box + 4 pan
Hersteller EGYSA
Bus-Typ Cubesat 6U
Phasenstatus In Orbit
Besitzer/Staat EGYSA/EG
Große Konstellationen
Loading constellations...